Location: Gwatt
(46.7204°N, 7.6223°E)
Time: 17:50:04
(UTC+00:00)

Transit 2A - Visible Passes

Search period start: 09 May 2021 00:00
Search period end: 19 May 2021 00:00
Orbit: 602 x 957 km, 66.7° (Epoch: 09 May)

Date Brightness Start Highest point End Pass type
(mag) Time Alt. Az. Time Alt. Az. Time Alt. Az.
09 May 5.5 02:13:12 27° SSW 02:15:39 83° ESE 02:20:01 10° NE visible
10 May 5.9 01:39:55 35° S 01:41:30 55° ESE 01:45:47 10° NE visible
10 May 7.2 03:21:22 10° W 03:24:54 23° NW 03:28:24 10° NNE visible
11 May 6.5 01:06:37 33° SE 01:07:24 36° ESE 01:11:25 10° NE visible
11 May 6.8 02:47:05 13° WSW 02:50:33 30° NW 02:54:26 10° NNE visible
12 May 7.1 00:33:16 24° ESE 00:33:20 24° ESE 00:36:54 10° ENE visible
12 May 6.3 02:13:44 22° WSW 02:16:15 42° NW 02:20:25 10° NNE visible
12 May 7.7 23:59:52 16° E 23:59:52 16° E 00:02:06 10° ENE visible
13 May 5.7 01:40:20 36° WSW 01:42:00 62° NW 01:46:20 10° NNE visible
14 May 5.4 01:06:55 57° SSW 01:07:48 89° ESE 01:12:11 10° NE visible
14 May 7.7 02:48:43 10° WNW 02:51:33 16° NW 02:54:20 10° N visible
15 May 5.6 00:33:27 59° SE 00:33:39 59° ESE 00:37:57 10° NE visible
15 May 7.4 02:13:55 11° W 02:17:07 21° NW 02:20:30 10° N visible
15 May 6.4 23:59:57 38° ESE 23:59:57 38° ESE 00:03:37 10° NE visible
16 May 7.0 01:40:24 18° W 01:42:44 29° NW 01:46:33 10° NNE visible
16 May 7.1 23:26:24 24° E 23:26:24 24° E 23:29:08 10° NE visible
17 May 6.5 01:06:52 29° W 01:08:26 39° NW 01:12:33 10° NNE visible
17 May 7.7 22:52:50 15° E 22:52:50 15° E 22:54:24 10° ENE visible
18 May 5.9 00:33:17 47° W 00:34:11 57° NW 00:38:29 10° NNE visible
18 May 8.1 02:16:30 10° NW 02:18:16 12° NNW 02:20:02 10° N visible
